Weather in Isakovo

Russia / Pskov Oblast     56°19′30″N   29°03′45″E
temp.,
°C
wind,
m/s
gust,
m/s
humid.,
%
clouds,
%
prec.,
mm/h
press.,
hPa
HPBL,
m
15 april, thu
thu1500:00+4ne31285100 0.0 1021541
03:00+4nne4138694 0.0 1021529
06:00+3nne41276100 0.0 1021511
09:00+4nne51276100 0.0 1021568
12:00+5nne51380100 0.1 1020664
15:00+4ne61389100 1.3 1020665
18:00+5ne61389100 2.3 1020714
21:00+5ne51492100 3.9 1019652
16 april, fri
fri1600:00+5ne5139298 2.7 1019638
03:00+5ne6149198 3.3 1018561
06:00+5ne51493100 0.5 1018538
09:00+6ene51292100 0.9 1019596
12:00+6ene51193100 1.5 1020577
15:00+10ene5980100 1.5 1020752
18:00+10ene61181100 0.0 1021922
21:00+8ene51389100 0.1 1022704
17 april, sat
sat1700:00+8ene5138996 1.6 1022846
03:00+7ene5128963 1.6 1022612
06:00+6ene41291100 0.0 1023474
09:00+8ene498434 0.0 1024460
12:00+11e457393 0.0 1024878
15:00+11ene4775100 0.0 1025786
18:00+12ene487375 0.0 10241070
21:00+10ne3976100 0.0 1025411
18 april, sun
sun1800:00+7ne3108747 0.0 1025294
03:00+6ne310835 0.0 1025302
06:00+4ene3108224 0.0 1025300
09:00+8ene48625 0.0 1025477
12:00+12ene57490 0.0 10251011
15:00+14ene56414 0.0 10251523
18:00+14ene46442 0.0 10251623
21:00+8ene37663 0.0 1026124
19 april, mon
mon1900:00+6e27755 0.0 1026128
03:00+5e24795 0.0 102787
06:00+4e25832 0.0 102799
09:00+9e35620 0.0 1027367
12:00+13e45455 0.0 10271605
15:00+15e353864 0.0 10262206
18:00+14e454686 0.0 10251871
21:00+10ese2563100 0.0 1025113